When you browse on this site, cookies collect data to enhance your experience and personalize the content and advertising you see.
Visit our Privacy Policy to learn more. By continuing to use the site, you agree to this use of cookies and data.
  • In France
  • List of Countries
  • For 7 days
  • Water Temperature
  • Satellite Maps
  • Weather Map
  • Weather Widgets
  • user-avatar
    Login

    Hourly Weather Krasnaya Yablonka

    Today, 23 February, Saturday

    Time Temperature Precipitation Wind Pressure Humidity
    00:00 -14°C° 0 mm 4 mps 755 mmHg 90%
    01:00 -14°C° 0 mm 4 mps 756 mmHg 91%
    02:00 -14°C° 0 mm 4 mps 757 mmHg 91%
    03:00 -15°C° 0 mm 4 mps 757 mmHg 91%
    04:00 -16°C° 0 mm 4 mps 758 mmHg 91%
    05:00 -17°C° 0 mm 4 mps 758 mmHg 92%
    06:00 -17°C° 0 mm 3 mps 759 mmHg 92%
    07:00 -17°C° 0 mm 3 mps 759 mmHg 92%
    08:00 -17°C° 0 mm 3 mps 760 mmHg 92%
    09:00 -17°C° 0 mm 4 mps 761 mmHg 92%
    10:00 -15°C° 0 mm 3 mps 761 mmHg 90%
    11:00 -14°C° 0 mm 3 mps 761 mmHg 88%
    12:00 -13°C° 0 mm 3 mps 761 mmHg 87%
    13:00 -13°C° 0 mm 3 mps 761 mmHg 86%
    14:00 -12°C° 0 mm 3 mps 761 mmHg 85%
    15:00 -10°C° 0 mm 3 mps 761 mmHg 85%
    16:00 -10°C° 0 mm 2 mps 761 mmHg 87%
    17:00 -13°C° 0 mm 2 mps 761 mmHg 89%
    18:00 -14°C° 0 mm 2 mps 760 mmHg 91%
    19:00 -14°C° 0 mm 2 mps 760 mmHg 91%
    20:00 -15°C° 0 mm 2 mps 760 mmHg 91%
    21:00 -15°C° 0 mm 2 mps 760 mmHg 91%
    22:00 -15°C° 0 mm 2 mps 760 mmHg 91%
    23:00 -15°C° 0 mm 2 mps 760 mmHg 91%

    Tomorrow, 24 February, Sunday

    Time Temperature Precipitation Wind Pressure Humidity
    00:00 -16°C° 0 mm 3 mps 760 mmHg 91%
    01:00 -16°C° 0 mm 3 mps 759 mmHg 91%
    02:00 -16°C° 0 mm 3 mps 759 mmHg 90%
    03:00 -16°C° 0 mm 3 mps 759 mmHg 90%
    04:00 -16°C° 0 mm 3 mps 759 mmHg 90%
    05:00 -16°C° 0 mm 3 mps 758 mmHg 91%
    06:00 -16°C° 0 mm 3 mps 758 mmHg 91%
    07:00 -15°C° 0 mm 3 mps 758 mmHg 92%
    08:00 -14°C° 0 mm 3 mps 758 mmHg 93%
    09:00 -13°C° 0 mm 3 mps 758 mmHg 95%
    10:00 -12°C° 0 mm 3 mps 758 mmHg 94%
    11:00 -9°C° 0 mm 3 mps 757 mmHg 94%
    12:00 -8°C° 0 mm 3 mps 757 mmHg 94%
    13:00 -7°C° 0 mm 3 mps 757 mmHg 93%
    14:00 -7°C° 0 mm 3 mps 757 mmHg 92%
    15:00 -6°C° 0 mm 3 mps 756 mmHg 92%
    16:00 -6°C° 0 mm 3 mps 756 mmHg 93%
    17:00 -6°C° 0 mm 3 mps 756 mmHg 94%
    18:00 -5°C° 0 mm 2 mps 756 mmHg 95%
    19:00 -5°C° 0 mm 2 mps 755 mmHg 95%
    20:00 -5°C° 0 mm 3 mps 755 mmHg 95%
    21:00 -5°C° 0 mm 3 mps 755 mmHg 96%
    22:00 -5°C° 0.1 mm 3 mps 754 mmHg 96%
    23:00 -4°C° 0.1 mm 3 mps 754 mmHg 96%

    Day after tomorrow, 25 February, Monday

    Time Temperature Precipitation Wind Pressure Humidity
    00:00 -4°C° 0.1 mm 3 mps 753 mmHg 96%
    01:00 -2°C° 0.1 mm 3 mps 753 mmHg 96%
    02:00 -3°C° 0.1 mm 4 mps 752 mmHg 96%
    03:00 -2°C° 0.1 mm 4 mps 751 mmHg 96%
    04:00 -2°C° 0.1 mm 4 mps 750 mmHg 96%
    05:00 -2°C° 0.1 mm 4 mps 750 mmHg 95%
    06:00 -1°C° 0.1 mm 5 mps 749 mmHg 94%
    07:00 -1°C° 0.5 mm 5 mps 748 mmHg 94%
    08:00 -1°C° 0.5 mm 5 mps 747 mmHg 94%
    09:00 -2°C° 0.5 mm 5 mps 747 mmHg 93%
    10:00 -1°C° 0.4 mm 5 mps 746 mmHg 95%
    11:00 -1°C° 0.4 mm 4 mps 745 mmHg 97%
    12:00 -1°C° 0.4 mm 4 mps 745 mmHg 99%
    13:00 -1°C° 0.3 mm 4 mps 744 mmHg 99%
    14:00 -1°C° 0.3 mm 4 mps 744 mmHg 99%
    15:00 -1°C° 0.3 mm 5 mps 744 mmHg 99%
    16:00 -1°C° 0.1 mm 4 mps 743 mmHg 96%
    17:00 -2°C° 0.1 mm 4 mps 743 mmHg 93%
    18:00 -2°C° 0.1 mm 4 mps 743 mmHg 91%
    19:00 -2°C° 0 mm 4 mps 743 mmHg 92%
    20:00 -2°C° 0 mm 4 mps 743 mmHg 93%
    21:00 -1°C° 0 mm 3 mps 743 mmHg 94%
    22:00 -1°C° 0.1 mm 3 mps 742 mmHg 94%
    23:00 -1°C° 0.1 mm 3 mps 742 mmHg 95%

    26 February, Tuesday

    Time Temperature Precipitation Wind Pressure Humidity
    00:00 -2°C° 0.1 mm 3 mps 742 mmHg 95%
    01:00 -2°C° 0.1 mm 3 mps 742 mmHg 95%
    02:00 -2°C° 0.1 mm 3 mps 741 mmHg 95%
    03:00 -2°C° 0.1 mm 3 mps 741 mmHg 96%
    04:00 -2°C° 0.1 mm 3 mps 741 mmHg 96%
    05:00 -2°C° 0.1 mm 3 mps 741 mmHg 96%
    06:00 -2°C° 0.1 mm 3 mps 740 mmHg 96%
    07:00 -2°C° 0.1 mm 3 mps 740 mmHg 95%
    08:00 -3°C° 0.1 mm 4 mps 740 mmHg 95%
    09:00 -3°C° 0.1 mm 4 mps 740 mmHg 94%
    10:00 -2°C° 0.1 mm 4 mps 740 mmHg 96%
    11:00 -2°C° 0.1 mm 4 mps 740 mmHg 97%
    12:00 -1°C° 0.1 mm 3 mps 740 mmHg 98%
    13:00 -2°C° 0.1 mm 4 mps 740 mmHg 96%
    14:00 -2°C° 0.1 mm 4 mps 740 mmHg 95%
    15:00 -2°C° 0.1 mm 4 mps 740 mmHg 93%
    16:00 -2°C° 0.1 mm 4 mps 740 mmHg 92%
    17:00 -2°C° 0.1 mm 3 mps 740 mmHg 92%
    18:00 -4°C° 0.1 mm 3 mps 740 mmHg 91%
    19:00 -2°C° 0.2 mm 3 mps 741 mmHg 92%
    20:00 -3°C° 0.2 mm 4 mps 741 mmHg 93%
    21:00 -2°C° 0.2 mm 4 mps 741 mmHg 93%
    22:00 -2°C° 0.1 mm 4 mps 742 mmHg 93%
    23:00 -2°C° 0.1 mm 4 mps 742 mmHg 93%

    27 February, Wednesday

    Time Temperature Precipitation Wind Pressure Humidity
    00:00 -2°C° 0.1 mm 4 mps 742 mmHg 93%
    01:00 -2°C° 0.1 mm 5 mps 743 mmHg 93%
    02:00 -2°C° 0.1 mm 5 mps 743 mmHg 93%
    03:00 -4°C° 0.1 mm 5 mps 743 mmHg 93%
    04:00 -4°C° 0.1 mm 5 mps 744 mmHg 92%
    05:00 -4°C° 0.1 mm 5 mps 744 mmHg 92%
    06:00 -5°C° 0.1 mm 5 mps 744 mmHg 92%
    07:00 -5°C° 0 mm 5 mps 744 mmHg 92%
    08:00 -5°C° 0 mm 5 mps 744 mmHg 91%
    09:00 -6°C° 0 mm 5 mps 745 mmHg 91%
    10:00 -6°C° 0.1 mm 5 mps 745 mmHg 91%
    11:00 -6°C° 0.1 mm 5 mps 745 mmHg 90%
    12:00 -5°C° 0.1 mm 4 mps 744 mmHg 90%
    13:00 -5°C° 0 mm 4 mps 744 mmHg 89%
    14:00 -5°C° 0 mm 4 mps 744 mmHg 89%
    15:00 -7°C° 0 mm 4 mps 743 mmHg 88%
    16:00 -6°C° 0 mm 3 mps 743 mmHg 89%
    17:00 -7°C° 0 mm 3 mps 743 mmHg 90%
    18:00 -7°C° 0 mm 3 mps 743 mmHg 91%
    19:00 -8°C° 0 mm 3 mps 743 mmHg 92%
    20:00 -9°C° 0 mm 3 mps 743 mmHg 92%
    21:00 -10°C° 0 mm 3 mps 743 mmHg 93%
    22:00 -10°C° 0 mm 2 mps 743 mmHg 94%
    23:00 -12°C° 0 mm 2 mps 742 mmHg 94%

    28 February, Thursday

    Time Temperature Precipitation Wind Pressure Humidity
    00:00 -14°C° 0 mm 2 mps 742 mmHg 95%
    01:00 -14°C° 0 mm 2 mps 742 mmHg 95%
    02:00 -14°C° 0 mm 2 mps 742 mmHg 95%
    03:00 -15°C° 0 mm 2 mps 742 mmHg 95%
    04:00 -15°C° 0 mm 2 mps 741 mmHg 95%
    05:00 -15°C° 0 mm 2 mps 741 mmHg 95%
    06:00 -15°C° 0 mm 2 mps 741 mmHg 95%
    07:00 -14°C° 0 mm 2 mps 740 mmHg 95%
    08:00 -12°C° 0 mm 2 mps 740 mmHg 96%
    09:00 -10°C° 0 mm 2 mps 740 mmHg 96%
    10:00 -10°C° 0 mm 3 mps 739 mmHg 95%
    11:00 -8°C° 0 mm 3 mps 738 mmHg 95%
    12:00 -6°C° 0 mm 3 mps 738 mmHg 95%
    13:00 -5°C° 0 mm 4 mps 737 mmHg 95%
    14:00 -4°C° 0 mm 4 mps 737 mmHg 94%
    15:00 -3°C° 0 mm 4 mps 736 mmHg 93%
    16:00 -3°C° 0 mm 4 mps 735 mmHg 93%
    17:00 -3°C° 0 mm 4 mps 735 mmHg 93%
    18:00 -4°C° 0 mm 3 mps 734 mmHg 93%
    19:00 -4°C° 0.1 mm 4 mps 734 mmHg 94%
    20:00 -4°C° 0.1 mm 4 mps 733 mmHg 94%
    21:00 -4°C° 0.1 mm 4 mps 733 mmHg 95%
    22:00 -4°C° 0.2 mm 4 mps 732 mmHg 94%
    23:00 -4°C° 0.2 mm 4 mps 732 mmHg 94%
    Show more